User: anonymous   Login
Location: Tyler Bend Campground
(35.9875°N, 92.7606°W)
Time: 03:02:28
(UTC-05:00)
Language:

CZ-2C R/B - Orbit

View from above orbital plane
View from above orbital plane
View from above satellite
View from above satellite

Ground track
Ground track

The orbit data is extracted from the following two-line orbital elements,

1 36089U 09061B   17228.57594512 +.00000019 +00000-0 +16056-4 0  9992
2 36089 098.0541 227.7018 0081174 219.0393 289.7845 14.49674175410365
Epoch (UTC): 16 August 2017 13:49:21
Eccentricity: 0.0081174
inclination: 98.0541°
perigee height: 669 km
apogee height: 784 km
right ascension of ascending node: 227.7018°
argument of perigee: 219.0393°
revolutions per day: 14.49674175
mean anomaly at epoch: 289.7845°
orbit number at epoch: 41036

The dashed part of the orbit path shows where the satellite is in the earth's shadow,  

DLR